User: anonymous   Login
Location: Unspecified
(0.0000°N, 0.0000°E)
Time: 12:24:55
(UTC+00:00)
Language:

ELISA W23 - Orbit

View from above orbital plane
View from above orbital plane
View from above satellite
View from above satellite

Ground track
Ground track

The orbit data is extracted from the following two-line orbital elements,

1 38007U 11076A   19105.82922336 0.00000100  00000-0  18662-4 0    05
2 38007  97.9672 167.5385 0002000  32.9364 327.0634 14.65063415    04
Epoch (UTC): 15 April 2019 19:54:04
Eccentricity: 0.0002000
inclination: 97.9672°
perigee height: 675 km
apogee height: 678 km
right ascension of ascending node: 167.5385°
argument of perigee: 32.9364°
revolutions per day: 14.65063415
mean anomaly at epoch: 327.0634°
orbit number at epoch: 0

The dashed part of the orbit path shows where the satellite is in the earth's shadow,  

DLR